Weather History for Duluth, MN

Change the Weather History Date:

Monday, August 26, 2013

  Actual Average Record
Temperature  
Mean Temperature 80 °F 63 °F  
Max Temperature 90 °F 73 °F 93 °F (1937)
Min Temperature 70 °F 53 °F 36 °F (1968)
Degree Days  
Heating Degree Days 0 4  
Month to date heating degree days 27 64  
Since 1 June heating degree days 220 306  
Since 1 July heating degree days 74 127  
Cooling Degree Days 15 2  
Month to date cooling degree days 112 62  
Year to date cooling degree days 307 186  
Since 1 June cooling degree days 306 182  
Growing Degree Days 30 (Base 50)    
Moisture  
Dew Point 70 °F    
Average Humidity 73    
Maximum Humidity 90    
Minimum Humidity 55    
Precipitation  
Precipitation 0.12 in 0.13 in 0.90 in (1943)
Month to date precipitation 0.72 3.08  
Year to date precipitation 20.33 20.08  
Snow  
Snow 0.00 in 0.00 in 0.00 in (2002)
Month to date snowfall 0.0 0.0  
Since 1 June snowfall 0.0 0.0  
Since 1 July snowfall 0.0 0.0  
Snow Depth 0.00 in    
Sea Level Pressure  
Sea Level Pressure 29.93 in    
Wind  
Wind Speed 5 mph (East)    
Max Wind Speed 15 mph    
Max Gust Speed 20 mph    
Visibility 8 miles    
Events Fog , Rain , Thunderstorm    
T = Trace of Precipitation, MM = Missing Value Source: NWS Daily Summary

Daily Weather History Graph

Daily Weather History Graph

Search for Another Location

Airport:

Trip Planner

Search our weather history database for the weather conditions in past years. The results will help you decide how hot, cold, wet, or windy it might be!

Date:

Astronomy

Aug. 26, 2013 Rise Set
Actual Time 6:20 AM CDT 7:59 PM CDT
Civil Twilight 5:48 AM CDT 8:30 PM CDT
Nautical Twilight 5:09 AM CDT 9:09 PM CDT
Astronomical Twilight 4:27 AM CDT 9:51 PM CDT
Moon 10:43 PM CDT (8/26) 12:49 PM CDT (8/26)
Length of Visible Light 14h 41m
Length of Day
13h 38m
Waning Gibbous, 66% of the Moon is Illuminated
Aug 26
Waning Gibbous
Aug 28
Last Quarter
Sep 5
New
Sep 12
First Quarter
Sep 19
Full

Hourly Weather History & Observations

Time (CDT) Temp. Heat Index Dew Point Humidity Pressure Visibility Wind Dir Wind Speed Gust Speed Precip Events Conditions
12:10 AM 80.6 °F 85.4 °F 73.4 °F 79% 29.94 in 10.0 mi North 6.9 mph - N/A Thunderstorm Thunderstorm
12:31 AM 80.6 °F 85.4 °F 73.4 °F 79% 29.93 in 10.0 mi Variable 4.6 mph - N/A Thunderstorm Thunderstorm
12:55 AM 80.1 °F 84.5 °F 73.9 °F 81% 29.90 in 10.0 mi Calm Calm - N/A Thunderstorm Thunderstorm
1:46 AM 75.2 °F - 69.8 °F 83% 29.95 in 10.0 mi East 3.5 mph - 0.02 in Thunderstorm Thunderstorm
1:55 AM 75.0 °F - 70.0 °F 84% 29.93 in 10.0 mi NNE 4.6 mph - 0.02 in Thunderstorm Thunderstorm
1:58 AM 75.2 °F - 69.8 °F 83% 29.95 in 10.0 mi North 3.5 mph - N/A Thunderstorm Thunderstorm
2:05 AM 75.2 °F - 69.8 °F 83% 29.94 in 10.0 mi North 4.6 mph - N/A Thunderstorm Thunderstorm
2:55 AM 75.0 °F - 69.1 °F 82% 29.92 in 10.0 mi Calm Calm - N/A Thunderstorm Thunderstorm
3:12 AM 73.4 °F - 69.8 °F 88% 29.95 in 8.0 mi Calm Calm - N/A   Scattered Clouds
3:55 AM 73.0 °F - 70.0 °F 90% 29.94 in 7.0 mi South 3.5 mph - N/A   Scattered Clouds
4:55 AM 73.0 °F - 69.1 °F 87% 29.93 in 5.0 mi Calm Calm - N/A   Scattered Clouds
5:55 AM 71.1 °F - 68.0 °F 90% 29.95 in 5.0 mi Calm Calm - N/A   Scattered Clouds
6:55 AM 72.0 °F - 68.0 °F 87% 29.96 in 7.0 mi Calm Calm - N/A   Scattered Clouds
7:55 AM 75.0 °F - 70.0 °F 84% 29.97 in 10.0 mi South 4.6 mph - N/A   Scattered Clouds
8:55 AM 78.1 °F - 72.0 °F 81% 29.97 in 10.0 mi Calm Calm - N/A   Scattered Clouds
9:55 AM 82.0 °F 87.4 °F 73.0 °F 74% 29.96 in 10.0 mi SSW 3.5 mph - N/A   Scattered Clouds
10:55 AM 86.0 °F 92.2 °F 72.0 °F 63% 29.96 in 10.0 mi Calm Calm - N/A   Partly Cloudy
11:55 AM 88.0 °F 92.9 °F 70.0 °F 55% 29.95 in 10.0 mi Calm Calm - N/A   Partly Cloudy
12:55 PM 89.1 °F 96.0 °F 72.0 °F 57% 29.94 in 10.0 mi SE 8.1 mph - N/A   Partly Cloudy
1:55 PM 88.0 °F 96.5 °F 73.9 °F 63% 29.94 in 10.0 mi East 8.1 mph - N/A   Scattered Clouds
2:55 PM 89.1 °F 98.0 °F 73.9 °F 61% 29.92 in 10.0 mi ESE 9.2 mph - N/A   Partly Cloudy
3:55 PM 86.0 °F 92.2 °F 72.0 °F 63% 29.91 in 10.0 mi East 11.5 mph - N/A   Scattered Clouds
4:55 PM 84.9 °F 90.7 °F 72.0 °F 65% 29.90 in 10.0 mi East 9.2 mph - N/A   Scattered Clouds
5:35 PM 80.6 °F 83.9 °F 69.8 °F 70% 29.91 in 10.0 mi ESE 8.1 mph - 0.00 in Rain , Thunderstorm Light Thunderstorms and Rain
5:55 PM 79.0 °F - 71.1 °F 77% 29.91 in 8.0 mi ESE 5.8 mph - 0.02 in Rain , Thunderstorm Light Thunderstorms and Rain
6:55 PM 77.0 °F - 72.0 °F 84% 29.92 in 7.0 mi North 10.4 mph - 0.02 in Rain , Thunderstorm Light Thunderstorms and Rain
7:22 PM 73.4 °F - 68.0 °F 83% 29.95 in 7.0 mi NW 3.5 mph - 0.02 in Rain , Thunderstorm Light Thunderstorms and Rain
7:55 PM 73.0 °F - 69.1 °F 87% 29.91 in 10.0 mi Calm Calm - 0.05 in Rain , Thunderstorm Light Thunderstorms and Rain
7:57 PM 73.4 °F - 69.8 °F 88% 29.93 in 10.0 mi Calm Calm - 0.00 in Rain Light Rain
8:40 PM 73.4 °F - 69.8 °F 88% 29.92 in 10.0 mi ESE 11.5 mph - 0.00 in   Mostly Cloudy
8:43 PM 73.4 °F - 69.8 °F 88% 29.91 in 9.0 mi ESE 11.5 mph - 0.00 in   Mostly Cloudy
8:55 PM 73.9 °F - 71.1 °F 91% 29.90 in 4.0 mi ESE 6.9 mph - 0.00 in   Overcast
9:05 PM 73.4 °F - 71.6 °F 94% 29.92 in 0.5 mi ESE 10.4 mph 17.3 mph N/A Fog Fog
9:20 PM 73.4 °F - 69.8 °F 88% 29.92 in 0.8 mi ESE 11.5 mph - N/A   Mist
9:32 PM 71.6 °F - 69.8 °F 94% 29.91 in 2.0 mi East 6.9 mph - N/A   Overcast
9:55 PM 71.1 °F - 68.0 °F 90% 29.90 in 3.0 mi East 11.5 mph - N/A   Overcast
10:55 PM 70.0 °F - 66.0 °F 87% 29.89 in 10.0 mi NE 5.8 mph - 0.00 in   Overcast
11:20 PM 69.8 °F - 66.2 °F 88% 29.92 in 10.0 mi NE 10.4 mph - 0.00 in Rain , Thunderstorm Light Thunderstorms and Rain
11:41 PM 71.6 °F - 66.2 °F 83% 29.90 in 10.0 mi NE 8.1 mph - 0.01 in Rain Light Rain
11:55 PM 71.1 °F - 66.9 °F 87% 29.88 in 10.0 mi East 4.6 mph - 0.01 in   Mostly Cloudy